Theta_e
321 325 331 343 344 344 344 343 342 343 342 341 342 341 341 340 341 341 340 340 341 341 341 340 341 340 340 340 340 339 338 337 336 335 336 336 336 336 335 335 335 335 335 335 335 334 334 334 334 332 331 331 331 332 336 336 335 332 329 328 328 329 331 333 334 333 332 331 331 333 333 335 335 335 335 336 336 335 335 335 335 331 330 330 337
317 326 331 335 345 344 343 343 342 341 342 342 342 341 341 341 340 340 340 339 339 340 340 340 340 340 340 340 339 338 337 337 336 336 336 335 335 335 335 335 334 335 335 335 334 334 335 335 333 331 331 330 332 332 332 334 332 330 330 329 328 330 332 334 333 331 330 330 330 330 331 333 334 334 335 335 336 335 335 335 335 331 326 338 338
316 325 330 332 344 344 343 342 342 341 341 341 341 341 341 340 340 339 340 339 339 339 339 339 338 339 339 340 339 338 337 336 336 336 335 335 335 335 335 334 334 334 335 335 334 333 334 334 333 332 333 332 331 331 331 333 331 330 328 328 331 333 334 333 332 330 330 329 327 328 329 329 332 333 333 334 336 336 335 334 334 336 330 338 339
322 327 329 333 346 345 343 342 342 342 341 341 341 340 340 340 340 339 339 339 339 338 338 338 338 338 338 338 338 338 337 336 336 335 335 335 334 334 335 334 335 335 334 334 334 333 334 333 333 332 331 331 330 330 331 330 330 328 326 328 331 334 333 332 330 330 329 327 326 326 321 314 319 330 333 334 336 336 334 334 334 336 338 338 340
325 329 331 332 338 344 344 342 342 341 341 341 341 340 340 340 339 339 339 338 338 338 338 338 337 337 338 338 338 336 336 335 335 335 335 334 334 334 334 334 334 334 334 334 333 333 333 332 333 332 332 328 331 330 331 330 329 327 328 327 333 333 332 330 329 329 328 325 325 321 313 314 313 325 333 334 335 335 334 334 336 336 337 339 339
325 330 333 334 336 338 345 343 342 341 342 341 341 340 340 339 339 339 338 338 338 337 338 338 338 338 337 337 336 336 335 335 335 334 334 334 334 334 334 333 333 333 334 333 333 333 332 332 331 332 331 330 330 330 331 331 329 326 328 329 333 332 330 329 328 329 327 323 321 314 312 312 313 316 332 333 334 334 334 335 336 337 339 338 339
326 329 332 335 337 338 344 344 342 342 341 341 341 340 339 339 339 338 338 339 337 337 337 337 337 337 337 336 336 336 335 334 334 333 334 333 333 333 333 332 332 333 333 333 332 332 332 332 331 331 331 330 330 330 331 330 329 327 327 331 331 330 329 328 329 328 325 318 310 309 310 312 311 313 329 332 333 334 335 336 337 339 338 339 339
326 327 331 334 335 339 344 344 343 342 342 341 341 340 339 339 338 338 338 339 338 337 337 337 337 337 336 335 336 336 335 334 333 334 333 333 332 332 333 333 331 332 332 332 332 333 331 331 330 330 330 329 329 329 330 329 327 327 330 331 330 329 328 328 329 326 323 310 308 309 310 311 312 312 328 331 334 336 336 336 337 337 338 338 337
325 329 330 334 335 339 343 344 343 342 341 341 340 340 339 339 338 338 338 338 337 337 337 337 336 336 336 336 336 335 335 334 333 333 334 333 333 331 332 332 331 332 332 332 331 332 331 331 330 330 329 328 329 330 329 327 328 328 329 331 329 328 328 328 328 325 314 308 307 308 307 310 314 313 323 331 335 336 336 336 336 337 337 337 338
324 328 329 330 330 338 342 344 343 342 342 341 340 340 340 339 338 338 338 338 338 337 336 336 336 336 335 336 336 335 334 334 333 334 333 333 331 332 332 333 332 330 331 332 331 330 331 331 330 330 329 328 330 330 328 328 327 328 330 328 328 328 328 328 327 321 309 306 305 306 310 324 314 310 320 333 335 335 335 335 336 336 336 338 339
325 325 330 331 330 337 341 343 343 342 342 341 341 340 340 339 339 338 338 337 337 337 335 336 337 336 335 336 336 335 335 334 331 334 333 334 333 332 331 332 331 330 331 331 330 329 331 330 330 330 329 328 329 329 328 328 328 328 327 327 329 328 328 327 323 307 307 305 305 306 313 321 312 309 327 333 334 335 335 336 336 337 339 341 342
327 329 329 329 334 337 339 342 344 342 342 342 341 340 339 339 339 338 338 337 337 337 337 335 337 335 336 335 335 335 335 334 334 334 331 334 333 332 332 332 331 331 331 331 330 329 330 329 329 329 329 329 328 328 328 328 327 327 328 329 329 329 328 327 313 308 305 305 305 311 307 309 309 314 331 333 334 335 336 336 337 339 342 341 342
323 328 329 329 328 336 338 340 343 344 343 342 342 341 340 339 338 338 337 337 336 337 337 336 336 336 335 335 335 335 335 334 334 334 333 333 333 332 332 332 332 331 330 330 331 330 330 329 329 329 329 329 328 328 328 328 327 326 329 329 329 328 327 326 309 309 307 306 307 307 306 308 309 325 331 333 334 335 336 336 339 341 343 343 342
324 325 328 330 328 332 336 337 341 342 343 343 343 342 342 339 338 338 337 338 337 337 337 336 336 336 336 335 334 335 335 334 333 333 332 332 333 332 332 332 331 331 331 330 329 329 329 329 329 329 329 329 329 328 328 328 327 327 327 328 328 327 326 321 320 307 309 307 309 309 309 311 309 327 332 332 334 335 336 339 341 342 342 342 342
322 323 325 328 330 329 333 336 337 340 341 341 342 342 342 340 339 338 338 337 337 336 337 336 336 336 336 335 334 335 334 334 333 333 332 332 333 332 332 331 331 331 330 330 329 330 329 329 329 329 329 329 329 328 328 328 327 327 329 328 328 327 325 311 312 309 306 309 308 308 307 307 322 327 331 332 334 336 337 340 341 342 342 342 342
322 323 323 325 327 329 331 333 335 337 338 339 339 340 341 341 340 339 338 337 337 336 336 336 336 336 335 335 335 335 334 334 334 334 332 332 334 333 331 331 331 330 330 330 328 329 329 329 329 329 329 329 328 328 328 327 328 328 328 328 328 327 326 323 309 307 307 307 308 309 309 309 325 328 331 332 335 336 339 341 341 342 341 341 342
317 320 323 325 326 327 329 332 335 335 336 336 336 338 339 340 340 339 339 338 337 337 335 337 336 336 336 336 337 336 334 334 333 334 332 331 332 333 333 331 330 330 330 330 329 329 329 329 329 329 329 329 328 328 328 328 328 328 328 328 328 326 326 323 312 310 307 308 311 310 309 311 321 329 330 332 335 337 340 341 342 341 342 342 342
315 320 322 323 325 327 330 331 332 334 334 335 335 335 337 338 338 338 338 338 337 337 337 336 337 337 336 335 334 335 335 335 335 333 332 331 332 333 333 330 330 330 330 330 330 329 328 328 329 329 329 328 328 328 328 328 328 327 328 329 327 327 325 324 311 309 306 313 309 310 311 317 326 329 331 333 335 338 340 340 341 341 342 342 342
315 316 321 323 326 326 329 331 332 333 333 333 333 334 335 336 336 336 336 336 336 336 336 335 334 335 334 333 332 333 334 334 334 333 332 331 332 332 332 332 330 330 330 330 330 329 328 329 328 328 328 328 328 328 328 328 327 327 329 328 328 326 325 315 310 307 306 305 308 308 309 322 327 329 331 334 336 339 340 340 340 342 341 341 342
315 318 320 323 325 326 327 330 332 333 333 334 333 332 334 334 334 334 334 334 334 334 333 332 331 331 331 330 330 330 332 333 334 332 331 330 331 331 330 331 331 332 330 330 329 329 329 328 328 328 328 328 327 327 327 327 328 328 329 328 327 324 313 310 309 308 305 306 311 310 315 323 327 329 332 334 336 338 340 340 340 341 341 341 341
315 316 320 322 324 326 327 329 330 332 333 333 333 333 333 333 332 332 332 332 332 331 331 330 329 328 328 327 328 329 327 328 331 329 331 327 328 328 330 329 329 330 332 330 330 329 328 328 328 327 327 327 328 328 328 327 329 329 329 326 326 313 312 310 310 308 307 307 310 308 316 323 327 329 331 334 335 338 339 339 339 340 341 341 341
313 314 315 321 323 325 326 327 329 331 332 333 334 334 333 333 332 333 332 331 331 330 329 329 329 330 327 328 327 327 327 326 326 326 326 325 325 326 327 327 328 329 330 330 331 329 328 328 328 327 327 327 329 319 319 324 326 326 325 324 313 310 309 310 309 308 308 306 310 310 318 322 327 329 331 333 334 337 339 339 339 339 340 341 341
310 312 315 319 323 325 324 326 327 329 331 332 333 334 333 332 332 332 332 330 329 329 328 327 328 328 328 328 326 326 326 324 324 324 322 323 323 325 325 326 327 328 328 330 330 329 330 329 328 328 327 329 320 312 310 309 308 319 318 309 307 308 308 307 306 306 308 306 308 313 318 323 327 328 331 333 334 336 339 338 338 339 340 340 341
310 312 313 317 321 324 325 326 327 328 330 331 332 332 332 332 332 332 331 331 329 329 328 327 326 326 327 327 327 326 325 324 325 324 324 324 323 323 324 324 326 326 326 327 328 329 329 327 328 329 330 322 312 309 309 308 308 306 306 308 308 307 307 308 306 308 307 309 309 313 318 323 327 327 330 331 332 334 337 337 337 338 339 340 340
310 312 312 314 320 324 325 326 327 327 328 330 330 331 331 331 331 332 331 330 329 328 328 326 325 324 324 325 325 324 324 321 321 323 322 320 317 316 319 322 322 320 324 320 319 317 319 313 310 312 308 309 308 304 306 307 307 308 307 307 307 305 305 306 306 306 307 305 305 314 318 324 326 326 329 330 332 333 335 335 336 337 337 339 339
307 307 310 311 317 322 325 326 326 327 328 329 330 330 330 330 330 330 330 330 329 328 327 326 325 324 323 323 322 322 322 322 320 321 322 320 318 316 317 319 318 320 320 319 317 315 315 311 311 311 307 305 307 305 307 309 307 307 307 306 305 304 304 306 306 305 307 304 306 313 317 322 325 325 326 327 331 333 334 335 335 337 337 338 339
306 307 309 310 313 318 322 324 325 326 326 328 329 330 330 330 330 330 330 329 329 328 327 326 325 324 323 322 322 321 320 320 319 319 320 320 319 316 316 316 318 318 318 317 315 313 314 312 311 310 306 304 305 306 307 307 307 308 307 305 304 304 305 305 305 305 305 304 307 313 317 320 323 323 324 326 329 332 333 334 335 336 336 338 338
303 305 307 308 310 314 319 323 324 325 325 327 328 329 330 329 329 328 329 329 328 328 328 327 326 324 323 322 322 321 321 319 319 318 319 319 320 318 316 315 316 316 315 316 315 313 312 311 312 307 307 305 305 305 306 306 307 307 309 308 305 304 305 304 305 305 305 304 304 310 317 320 322 322 323 325 328 331 332 333 334 335 335 337 338
302 304 305 306 308 312 315 320 323 324 325 326 327 328 329 329 329 329 329 327 329 329 328 327 326 325 324 323 321 321 320 320 319 319 318 319 320 319 317 316 315 315 314 314 314 313 311 310 311 310 309 308 305 306 304 304 303 303 305 306 304 303 303 304 305 304 304 304 303 307 314 319 321 322 322 324 327 329 330 332 333 334 335 337 338
302 304 304 306 307 310 313 318 322 324 324 325 326 327 327 327 329 329 329 327 328 329 328 327 326 325 324 323 322 322 321 321 320 318 318 318 318 319 318 317 316 315 314 315 314 313 313 310 309 309 309 308 308 308 306 305 305 303 302 304 304 305 304 303 304 304 306 304 304 304 313 317 320 321 322 323 324 326 328 331 332 333 334 336 338
302 302 304 305 307 308 312 316 320 322 323 324 325 326 327 327 327 328 328 328 328 328 328 327 326 325 325 323 322 322 322 321 320 319 318 319 318 317 317 316 316 315 315 315 313 314 313 312 312 311 309 308 308 307 307 307 305 304 303 302 304 303 303 304 304 305 304 305 304 302 304 314 317 318 321 322 323 324 327 329 330 331 333 335 336
301 302 303 304 305 306 309 314 318 321 322 323 324 325 325 326 327 328 328 328 328 328 327 327 326 326 325 323 323 322 321 321 320 319 319 318 318 317 316 315 316 315 315 315 314 313 313 312 311 311 310 309 308 306 305 304 304 304 301 301 302 302 302 303 304 305 305 304 304 303 302 305 310 314 318 321 322 323 325 327 329 331 332 334 335
302 303 303 303 303 304 306 311 316 319 321 322 323 324 325 326 326 326 327 327 327 328 327 327 326 327 325 324 323 323 322 322 321 320 319 319 318 317 316 316 316 316 314 314 314 312 312 311 310 308 308 306 306 305 302 302 302 302 301 301 301 302 303 303 304 304 304 305 303 301 302 302 302 308 313 317 320 322 324 325 328 330 332 332 333
301 302 302 302 304 305 306 309 313 317 320 322 323 323 324 325 325 326 326 326 326 327 327 327 326 326 325 325 324 324 322 322 321 320 320 319 318 318 317 317 316 315 314 314 314 313 313 312 311 309 310 308 307 305 303 302 301 299 300 301 300 302 302 303 304 304 302 303 303 299 301 301 301 303 304 312 317 320 322 324 326 328 330 331 332
301 300 301 302 303 304 306 307 311 314 318 321 321 322 323 324 324 325 325 326 326 326 326 327 326 326 325 325 325 324 323 322 322 321 320 319 318 318 318 318 317 315 315 314 314 313 314 313 312 311 309 308 306 305 303 303 302 301 301 302 302 302 301 303 303 302 302 304 302 300 302 301 302 302 302 303 310 315 319 321 323 324 327 328 330
300 301 301 302 302 303 304 305 308 312 316 319 321 322 322 323 323 323 325 325 325 325 325 326 326 326 325 324 324 324 323 323 322 322 321 320 319 319 319 318 316 315 315 313 314 314 314 314 313 312 309 308 306 305 302 302 301 301 300 301 302 302 303 302 304 304 304 300 302 302 301 301 301 301 306 304 304 307 316 318 320 322 324 325 327
300 300 300 300 301 301 303 304 305 310 313 316 319 321 322 322 322 322 323 324 324 324 325 325 326 325 325 324 324 323 323 322 322 322 321 320 320 319 319 318 316 315 314 314 315 316 314 313 312 310 311 310 306 305 302 301 301 301 300 300 301 302 302 304 304 304 301 300 302 301 301 301 300 307 304 304 304 304 310 314 316 318 320 321 325
299 300 300 301 301 301 301 303 304 308 312 314 317 319 321 321 321 322 321 322 323 324 324 323 324 324 324 323 324 323 322 322 322 322 322 321 320 320 318 317 315 315 314 314 315 315 315 314 312 310 309 309 306 304 304 301 300 300 300 300 301 299 301 302 304 304 301 302 302 302 303 302 299 301 302 301 302 304 302 308 313 314 315 317 321
299 299 299 300 301 301 301 302 303 305 309 312 315 317 319 320 320 320 320 320 322 322 322 321 322 323 323 323 323 323 322 322 322 322 321 321 320 319 318 316 315 314 314 314 314 313 313 313 313 309 307 309 308 305 305 302 300 298 300 300 299 299 300 299 302 302 301 302 303 304 299 301 299 299 301 301 302 302 303 303 304 306 308 314 317
297 298 299 298 299 299 299 300 301 304 307 310 312 313 314 316 317 314 315 317 319 320 321 323 323 322 322 323 322 323 322 322 322 322 321 321 320 319 317 314 314 314 314 313 313 313 312 311 311 309 305 303 302 301 299 299 297 297 299 299 297 297 298 300 301 301 302 301 302 301 301 301 297 300 298 299 301 301 303 304 304 305 307 310 313
294 295 297 297 298 299 299 299 300 301 305 308 310 311 312 311 310 315 317 318 319 320 321 322 323 323 322 323 323 323 323 322 321 321 321 320 320 318 316 313 314 314 314 314 314 313 313 312 311 308 306 303 302 298 298 300 298 297 297 297 300 298 300 301 302 302 301 302 300 299 299 299 300 298 300 300 301 301 302 303 305 303 306 306 308
293 294 295 297 298 298 298 300 299 300 303 307 309 311 312 313 314 315 316 318 318 318 319 320 322 323 323 323 323 322 322 321 320 321 321 320 319 319 317 315 314 314 314 313 311 311 310 310 308 306 304 305 304 300 300 301 297 297 296 293 293 297 301 301 303 304 302 301 300 300 300 300 300 300 297 297 300 300 301 301 303 304 305 305 307
292 292 292 293 295 296 298 299 299 299 301 305 307 309 311 312 313 313 316 316 318 320 321 321 321 322 322 322 322 322 322 321 320 320 321 320 320 319 317 316 314 314 313 311 311 310 310 309 308 309 303 300 302 299 301 303 297 294 293 295 290 292 293 296 301 302 302 301 301 300 300 299 299 298 297 296 298 300 301 302 302 302 303 304 306
293 293 294 292 293 296 296 298 299 299 300 302 306 308 310 312 313 311 312 314 312 314 312 313 313 314 317 319 321 321 321 321 321 320 321 320 320 319 318 316 314 314 314 313 311 311 309 308 308 308 307 302 300 300 301 302 298 300 296 297 291 290 290 291 291 294 298 303 301 301 299 300 298 295 295 298 300 298 301 303 303 302 302 302 304
294 294 294 294 295 294 294 297 298 299 300 302 304 306 307 305 306 304 304 306 306 308 309 309 313 315 317 316 319 321 321 321 321 321 320 320 320 319 317 316 315 314 314 314 312 312 310 309 309 308 307 308 302 299 299 301 300 303 298 290 290 291 293 290 290 291 291 296 298 300 298 298 298 297 297 299 297 298 300 301 302 303 303 302 303
295 296 294 295 294 296 294 293 295 297 299 300 303 305 306 308 307 307 305 304 308 305 309 311 312 313 315 318 318 319 319 319 320 320 320 319 319 319 318 316 315 314 314 315 314 312 310 309 308 308 307 308 307 300 299 298 301 302 300 295 294 290 290 290 290 289 286 291 289 291 296 297 294 296 296 297 297 300 298 301 300 304 303 302 303
295 295 294 293 293 294 295 294 294 296 298 299 301 304 304 306 308 309 309 308 309 309 311 312 313 315 316 316 317 317 319 319 319 320 319 319 319 319 318 317 316 315 314 314 313 312 312 310 309 308 308 307 305 303 302 299 297 301 301 296 293 291 291 293 291 287 289 288 291 293 294 294 293 294 297 297 298 297 299 297 299 303 303 303 304
294 294 294 293 293 294 293 293 293 295 296 297 299 303 303 305 306 307 308 308 308 309 310 311 313 313 313 313 313 314 316 318 319 319 319 319 318 319 319 318 317 316 314 314 314 314 312 310 308 308 308 307 307 307 304 300 300 300 301 300 296 290 290 291 289 294 289 288 288 287 290 289 290 294 296 296 297 298 300 297 298 302 303 303 304
292 293 294 294 294 292 291 291 292 292 294 296 299 300 303 304 306 306 306 308 308 309 308 306 306 306 308 309 311 312 313 315 318 318 319 319 317 318 318 318 317 316 314 314 314 313 312 310 307 306 307 306 306 307 305 301 302 302 299 300 299 297 294 291 289 289 291 288 290 287 288 287 291 293 294 294 295 296 298 299 298 303 303 302 303
291 290 292 291 291 291 292 292 292 291 292 293 298 299 301 302 303 304 305 306 305 305 303 303 305 304 307 307 309 310 312 313 314 316 317 318 318 318 318 318 318 317 314 315 314 313 312 311 309 307 307 306 306 306 306 304 302 303 302 302 300 299 295 296 293 293 289 289 292 287 286 290 292 291 289 295 295 295 295 295 295 298 301 301 303
289 289 290 290 291 290 291 292 291 289 292 294 295 298 300 301 302 303 304 304 304 304 302 302 301 301 307 307 308 310 311 312 312 313 315 317 318 317 318 318 318 317 315 314 314 313 312 311 310 308 307 307 305 305 304 303 302 302 301 302 302 301 300 299 299 296 296 291 288 289 287 287 291 291 289 287 291 295 295 294 296 298 301 302 303
Wind_Speed
5 6 5 10 18 18 17 16 17 17 18 17 17 17 17 17 17 17 16 17 17 17 16 14 13 13 13 14 14 14 14 13 12 12 12 12 12 11 11 11 11 10 10 11 9 8 8 7 8 7 4 5 6 6 8 7 6 4 4 4 2 2 3 3 5 7 7 7 7 8 7 5 5 6 5 6 6 6 6 6 6 2 3 4 9
2 5 5 5 16 18 18 17 17 17 18 18 17 17 17 17 17 16 17 16 16 15 15 15 15 13 13 14 14 15 14 14 14 13 13 12 12 12 12 11 11 11 10 11 9 8 8 9 8 7 7 7 6 5 4 4 4 3 4 3 1 2 3 4 7 6 6 7 8 8 7 8 8 8 7 6 6 7 7 7 8 4 3 7 10
5 5 4 6 13 15 17 18 17 17 17 18 18 17 17 16 16 17 16 16 15 16 16 16 16 14 13 14 14 14 15 15 14 14 13 13 13 12 11 12 12 11 10 9 9 9 8 8 7 7 7 7 4 3 3 4 3 4 2 1 3 3 3 6 7 6 7 8 8 8 7 8 9 9 7 7 7 7 8 8 8 9 5 10 10
3 6 4 5 11 13 16 18 18 18 18 18 18 16 16 16 16 17 17 17 16 16 16 16 16 15 14 13 14 14 14 14 14 14 13 13 13 12 12 12 12 11 9 8 8 8 7 6 9 6 4 5 5 4 3 4 4 4 3 1 3 4 6 7 6 7 8 8 8 7 3 3 5 8 8 8 8 9 8 8 9 10 10 10 12
6 7 6 5 6 11 14 18 19 18 18 18 18 17 16 16 17 16 17 17 17 16 16 16 16 16 16 15 14 14 14 14 14 14 14 13 12 12 13 12 12 11 10 9 8 8 7 7 8 7 6 6 6 4 5 4 4 3 2 1 4 5 6 6 6 7 8 9 8 6 3 3 3 7 8 9 9 10 9 8 9 10 8 9 12
5 6 8 6 4 6 13 15 18 19 19 19 18 17 17 17 17 17 17 17 17 17 16 16 16 16 16 15 15 14 13 13 13 14 13 13 12 12 12 11 11 10 9 9 9 8 7 5 5 7 6 5 5 3 4 4 4 3 1 2 4 5 6 6 7 8 9 9 7 4 3 3 3 3 8 9 10 10 10 10 9 9 10 12 13
3 4 7 7 4 6 13 14 17 18 19 19 17 17 17 17 17 18 17 17 17 17 17 17 17 16 16 15 15 14 14 13 13 13 13 13 12 12 12 11 11 10 9 8 8 9 8 6 6 7 5 3 5 2 3 3 2 2 1 2 4 5 5 6 7 8 9 6 4 3 3 3 3 2 8 9 10 11 10 10 10 10 11 13 14
0 1 3 4 5 7 11 11 15 17 18 19 18 18 18 17 17 17 17 17 17 17 17 17 16 16 16 15 15 15 14 13 13 13 13 13 12 12 12 12 11 11 9 8 8 8 8 7 6 5 5 5 5 4 3 2 1 2 1 2 3 4 4 6 7 8 9 4 3 3 4 3 3 3 7 9 10 10 10 10 10 11 12 13 12
2 0 0 0 1 8 8 10 14 17 18 19 19 19 19 18 18 17 17 17 17 16 17 16 16 16 16 15 16 15 14 14 14 13 13 13 12 12 11 11 10 10 10 9 8 8 8 6 6 6 5 5 5 4 3 2 2 1 0 1 1 2 3 6 7 8 5 3 3 3 3 3 2 3 6 9 10 10 11 10 9 11 12 12 12
2 1 1 0 1 3 7 9 13 16 17 19 20 20 19 19 18 18 17 17 17 17 16 17 16 16 15 15 15 15 15 14 14 14 13 13 13 12 11 11 11 10 10 10 10 8 8 8 8 6 6 5 5 5 4 3 2 1 1 2 2 2 3 6 7 6 3 3 3 3 3 6 3 3 6 9 9 10 11 11 9 9 8 11 11
5 3 1 2 2 2 3 7 11 15 15 16 17 18 20 20 20 17 17 17 17 16 17 17 16 16 15 15 15 14 14 14 14 14 13 13 13 12 12 11 11 10 10 10 9 9 9 7 7 7 7 5 5 4 3 3 4 1 3 4 3 1 3 6 6 3 2 3 3 3 4 7 3 3 7 9 9 10 11 11 12 10 13 13 13
7 6 4 1 2 5 6 7 8 12 14 15 16 17 18 18 19 19 18 18 17 17 17 17 16 16 15 15 15 15 13 15 14 14 13 13 12 12 12 11 11 10 10 10 8 8 8 8 7 8 7 6 5 5 4 4 2 3 3 1 2 2 4 5 3 3 3 3 2 2 3 3 3 5 9 9 10 11 11 11 10 12 13 13 13
1 3 4 4 2 4 4 6 8 9 13 14 15 14 15 17 18 18 19 18 18 17 17 17 17 16 16 15 15 15 14 13 13 13 13 13 13 12 12 12 11 11 11 10 9 9 8 8 7 7 6 6 5 5 5 4 3 3 3 1 1 2 3 4 2 2 3 3 3 3 3 3 3 8 9 10 11 12 11 10 11 13 13 13 13
0 1 3 5 4 4 5 3 7 8 9 11 11 12 12 15 17 18 17 18 18 18 17 17 17 17 16 16 15 14 14 14 14 12 13 13 12 12 12 11 11 11 11 10 9 8 8 8 8 8 7 6 6 5 5 5 5 4 3 3 1 2 2 3 3 2 3 3 3 3 3 3 3 8 10 11 11 11 10 11 13 13 13 13 13
2 2 1 1 5 4 6 8 6 9 8 9 9 10 11 14 16 16 17 17 18 18 18 16 16 16 15 15 15 15 14 13 12 11 10 11 12 12 13 11 11 11 10 9 9 9 8 8 8 8 7 6 6 5 5 6 6 4 5 3 2 0 2 1 1 2 3 3 3 4 3 3 7 9 10 11 11 11 11 13 14 14 13 13 13
3 6 4 2 1 3 5 7 9 9 8 8 9 10 11 12 13 14 16 15 16 17 17 16 17 16 15 15 14 15 14 13 11 10 7 9 10 10 11 12 11 11 10 10 10 9 9 8 8 9 8 7 6 6 6 6 7 6 5 4 2 1 1 1 1 2 2 3 4 3 4 3 8 9 9 11 12 11 12 13 13 13 13 13 14
2 3 4 5 4 3 3 5 6 7 8 9 9 9 11 12 12 13 13 13 14 15 17 16 15 16 14 13 12 13 13 13 13 10 8 9 8 7 9 11 11 11 10 9 9 9 9 9 9 9 9 7 7 7 6 7 7 6 6 2 3 1 1 2 1 2 2 3 3 4 4 4 7 9 9 11 12 12 13 13 13 14 14 14 14
3 4 6 5 4 7 7 6 6 5 6 8 9 10 9 12 12 12 12 12 12 13 14 14 14 13 12 11 10 9 10 11 11 10 8 9 7 5 8 11 11 10 10 10 9 10 9 9 9 8 8 8 7 7 7 8 6 6 5 5 2 1 1 2 0 2 3 3 4 3 3 6 10 9 9 11 11 13 13 13 13 14 14 14 15
2 4 5 6 7 5 5 6 6 6 7 7 6 7 10 10 12 11 11 12 12 13 12 12 11 12 12 10 11 9 9 9 9 10 11 9 8 9 8 9 11 11 11 10 9 10 9 9 8 8 8 8 8 8 8 8 6 6 1 4 2 2 2 2 2 2 3 3 4 4 4 9 10 9 9 10 12 13 13 13 14 14 14 15 16
4 6 5 6 7 5 4 5 6 8 9 9 9 8 9 12 11 12 11 12 11 10 11 11 11 9 10 10 11 7 8 8 10 8 11 11 10 7 12 7 8 7 11 10 10 10 10 10 9 8 8 8 8 8 8 8 6 5 4 2 2 2 1 1 2 3 2 3 3 3 6 11 11 10 10 11 12 14 13 13 14 14 15 16 16
3 5 5 5 5 7 6 6 7 9 11 11 9 9 9 12 11 13 13 13 13 10 9 10 11 9 8 8 9 7 4 4 6 6 9 8 10 10 11 8 7 5 5 10 11 10 10 9 8 9 9 8 7 7 7 7 5 4 2 3 1 1 1 1 2 2 3 2 3 4 9 11 11 11 11 11 12 14 13 13 14 15 16 16 16
6 4 3 4 4 5 7 6 5 9 10 9 8 8 7 10 9 8 9 9 11 11 8 6 7 6 9 7 5 6 5 5 4 5 5 6 9 11 11 9 7 8 5 3 4 9 11 10 9 9 9 9 6 2 1 2 3 3 4 3 2 1 1 1 2 3 3 3 2 5 9 10 11 11 11 11 11 13 13 13 14 15 16 17 17
7 7 5 6 7 6 4 7 9 8 9 9 8 8 9 8 8 9 8 10 8 9 7 6 5 6 6 6 5 5 5 5 4 5 4 7 7 11 11 11 10 9 8 7 4 2 4 8 10 10 8 8 3 2 1 1 2 2 2 2 1 1 1 2 3 3 4 3 3 5 8 9 11 12 12 12 11 12 13 13 14 16 17 17 17
8 7 8 4 5 6 7 7 8 7 7 7 7 7 8 8 8 8 8 8 8 7 7 6 6 6 6 6 5 5 5 5 4 7 6 5 6 9 11 12 11 11 11 8 7 6 5 2 4 4 6 1 2 2 1 0 1 2 2 1 2 1 2 3 3 3 4 4 3 8 8 9 11 12 12 12 11 12 13 14 14 16 17 18 17
9 9 6 4 6 8 7 8 8 7 7 7 7 7 8 8 8 8 8 7 7 7 7 7 7 7 7 6 5 5 6 5 5 4 5 4 4 4 5 5 6 6 9 6 6 5 3 0 1 2 1 2 2 1 2 1 1 1 2 2 2 2 2 2 3 3 4 2 4 7 7 9 10 11 12 13 12 12 12 13 13 15 16 17 18
5 5 8 7 7 9 10 9 8 8 9 8 8 8 6 7 8 8 7 7 8 8 7 7 7 7 6 6 5 5 6 6 5 5 5 5 4 5 5 5 4 5 4 6 6 6 5 3 3 1 0 1 2 2 1 1 2 2 2 2 2 2 3 3 3 4 5 3 4 6 8 9 10 11 12 13 13 13 12 12 13 15 16 17 18
8 9 8 7 7 7 8 8 9 9 11 10 8 7 7 8 7 6 7 7 7 8 8 8 7 7 7 7 7 6 6 6 6 6 6 5 5 5 5 4 5 5 4 5 5 4 5 5 4 3 2 2 1 2 2 2 2 2 3 3 2 3 3 4 4 4 5 3 3 6 8 8 9 10 12 13 13 13 12 12 12 13 15 17 18
6 10 9 8 7 10 10 9 10 9 10 10 9 8 8 8 7 6 7 7 7 8 8 8 8 8 8 7 7 7 7 6 6 6 6 6 6 5 5 5 5 5 4 5 5 4 5 5 4 4 3 3 3 2 1 2 2 2 3 3 3 3 4 4 4 4 4 4 3 5 7 7 8 9 11 12 12 13 13 12 12 13 15 17 18
10 11 10 10 9 10 9 11 10 11 9 9 9 9 8 7 7 7 8 8 8 8 8 6 7 7 8 9 8 7 6 7 7 6 5 6 5 5 5 5 5 5 5 5 5 5 5 5 5 5 4 4 3 3 3 3 3 2 3 3 3 3 4 4 4 4 4 4 3 4 7 7 7 9 11 11 11 12 13 13 12 12 14 16 18
13 13 11 10 9 8 9 11 12 11 10 9 9 8 8 9 9 9 9 8 8 8 7 7 7 7 7 9 9 9 8 8 7 6 7 6 6 6 6 6 6 5 5 6 5 5 6 5 5 5 5 5 5 5 3 4 4 4 3 4 4 4 4 5 4 4 5 3 3 3 6 6 6 8 9 10 11 12 13 13 12 12 14 15 16
13 12 11 11 10 8 9 11 11 10 8 9 9 10 9 9 10 10 9 9 9 8 8 8 7 7 8 8 9 10 8 8 8 7 7 7 6 6 7 6 6 6 6 6 5 6 5 6 6 6 6 5 6 5 5 5 5 5 4 4 5 4 5 4 5 4 4 4 4 4 4 5 6 6 8 9 9 10 12 12 12 11 12 14 16
11 13 12 11 10 9 11 11 11 11 10 9 9 9 9 10 10 9 9 10 9 8 8 8 8 8 8 9 9 9 9 8 8 8 8 7 7 7 7 7 7 6 6 6 6 6 6 6 5 5 5 5 5 5 4 5 5 5 4 5 5 5 5 5 5 4 4 4 5 4 3 3 5 6 7 7 8 9 11 11 11 11 12 13 14
10 13 14 11 11 11 10 11 12 11 12 12 11 10 10 9 9 9 9 9 9 8 9 9 9 9 9 10 9 9 9 9 9 9 8 8 8 8 8 8 7 6 6 7 7 5 5 5 5 3 4 3 4 4 3 3 4 5 5 5 5 5 5 4 5 3 4 4 4 4 3 3 3 5 6 6 7 8 9 11 11 10 11 12 13
10 9 10 11 11 7 8 8 9 11 12 11 10 9 9 9 9 9 8 8 8 9 9 9 9 8 9 10 10 10 10 9 9 9 8 8 8 8 9 8 7 6 6 6 7 6 6 6 6 5 5 5 6 5 5 5 5 4 4 5 4 5 4 5 5 5 4 4 5 3 4 3 3 3 4 5 6 6 8 10 10 10 10 11 12
8 8 11 14 12 11 8 7 9 11 12 12 12 11 9 9 9 9 9 9 9 9 8 8 8 8 9 9 10 10 10 10 9 9 9 8 9 9 9 8 7 7 7 7 7 6 6 8 6 7 5 5 5 5 5 6 5 6 6 5 6 5 4 5 4 4 4 5 4 4 3 4 4 3 3 3 5 6 6 8 9 9 10 10 11
11 11 11 10 11 11 9 10 9 11 11 12 12 12 12 11 10 9 9 9 8 9 8 9 9 8 8 8 10 10 10 10 10 9 9 9 9 9 9 7 8 7 7 6 7 8 7 7 7 7 6 6 5 6 4 6 5 6 5 5 5 4 5 4 5 5 5 3 4 5 4 4 4 4 4 4 3 4 6 6 8 9 9 9 10
10 10 11 9 10 10 10 11 11 12 12 12 11 10 10 10 10 10 10 9 9 8 8 7 7 8 8 9 9 10 10 10 10 10 9 10 9 9 8 8 7 8 7 7 7 7 7 7 6 6 7 7 7 7 5 5 6 6 5 5 6 5 5 5 5 5 3 4 5 5 4 4 4 5 4 3 3 4 4 5 6 7 7 8 10
9 10 10 11 12 10 9 11 11 11 12 12 12 11 10 10 9 9 9 9 9 8 7 6 7 7 7 8 9 9 9 10 10 10 10 10 9 8 7 8 8 7 7 7 8 6 6 6 7 6 7 6 6 6 7 5 5 5 5 6 5 5 5 5 5 4 4 5 5 5 6 4 3 5 4 3 3 3 3 4 5 7 6 6 9
6 8 8 9 9 8 7 8 9 9 10 10 10 10 10 8 7 7 7 8 7 6 6 6 7 7 8 9 9 9 10 11 11 11 10 9 9 8 8 8 8 8 7 7 7 7 6 6 8 6 5 7 6 5 5 4 4 4 5 6 5 5 5 4 3 5 5 6 6 6 3 5 4 4 5 4 3 2 3 3 2 2 3 7 8
5 5 7 7 8 7 5 6 8 9 8 7 7 7 6 7 8 5 5 6 6 7 7 9 8 9 10 10 10 10 11 11 12 11 11 9 8 8 8 7 8 8 8 9 8 8 9 8 9 7 6 5 4 3 3 3 2 4 5 4 4 4 5 5 5 5 6 6 6 5 6 4 3 5 3 4 3 3 3 2 2 2 3 4 7
3 4 5 6 8 9 7 10 9 7 7 8 7 8 8 6 4 7 9 8 10 10 10 9 9 10 11 11 11 10 11 11 11 10 10 10 9 7 7 7 8 9 9 10 8 8 8 8 7 5 7 6 6 3 3 4 2 3 1 4 6 5 7 5 7 6 7 6 6 6 5 4 5 4 4 2 3 4 2 2 2 2 2 2 3
3 2 5 8 7 7 9 10 6 7 9 10 10 10 10 10 11 11 10 9 8 8 8 8 10 9 11 10 9 7 7 8 8 9 9 10 9 8 9 9 9 9 9 7 7 8 8 8 6 6 5 8 6 6 6 6 1 4 1 4 3 5 7 7 8 8 7 6 6 6 6 6 6 5 3 2 3 4 3 2 1 3 2 2 2
4 4 4 4 5 6 8 8 7 8 9 10 9 9 9 9 9 8 11 8 8 10 10 11 10 10 9 9 8 8 9 9 10 11 11 11 11 10 10 9 10 9 8 8 8 9 9 11 10 9 6 4 4 4 8 7 5 3 2 2 4 3 3 3 5 8 6 5 6 7 7 6 6 4 3 1 3 4 3 2 2 2 3 2 1
4 4 3 4 4 5 6 7 8 8 9 9 10 11 10 10 8 5 5 5 5 5 3 1 4 4 6 8 9 10 11 11 12 12 11 11 12 12 10 9 10 10 10 9 9 10 9 9 9 9 8 6 6 6 7 9 6 7 1 5 3 1 6 5 3 5 4 8 8 8 6 7 5 3 1 4 4 4 4 2 3 3 2 3 2
4 4 4 3 3 5 5 6 8 9 9 10 12 9 6 4 4 2 3 2 2 3 5 5 7 8 8 8 11 12 13 12 11 11 10 10 10 9 9 9 9 9 9 9 10 12 11 11 12 10 11 10 7 5 6 8 8 6 7 4 2 0 6 3 2 4 1 1 5 6 5 5 5 4 4 5 4 5 4 3 3 2 3 3 2
5 4 3 4 4 6 5 5 6 6 9 10 11 9 9 9 7 7 6 6 8 6 9 11 10 10 12 11 10 9 7 8 8 9 10 9 10 10 10 10 10 10 11 11 10 8 10 12 12 12 12 11 8 6 7 5 6 7 6 3 5 3 1 2 1 5 2 1 2 1 4 5 4 4 4 4 5 5 4 5 3 3 3 3 3
6 4 4 4 4 5 5 5 5 6 7 7 8 9 8 8 11 12 12 12 12 9 8 8 10 10 10 11 11 10 11 12 11 11 11 12 11 11 11 11 11 10 10 9 9 11 11 11 9 10 12 9 7 9 10 7 2 7 6 2 1 1 2 3 2 1 3 2 1 1 2 3 4 4 5 5 5 4 4 4 4 3 3 2 3
6 6 5 4 4 5 4 5 5 5 5 5 6 9 10 10 11 10 10 11 11 11 10 11 9 8 8 8 7 8 10 11 11 11 12 12 11 11 11 11 10 10 9 10 11 10 7 7 10 11 8 9 12 11 8 8 12 8 8 8 5 2 2 3 2 1 1 2 3 1 1 2 2 5 5 5 5 6 5 4 4 4 3 3 3
4 4 4 4 5 5 4 3 4 4 4 5 6 8 9 10 11 10 10 9 10 11 8 5 4 3 5 5 6 7 8 9 10 11 11 11 11 11 11 10 10 10 10 10 10 9 11 11 11 10 11 9 10 10 7 10 10 8 7 8 6 6 3 1 2 2 2 2 6 2 4 2 1 4 5 4 5 4 5 5 4 5 3 4 3
4 3 3 3 4 3 4 3 1 1 3 4 7 7 8 7 8 8 10 10 8 8 5 7 7 5 7 5 6 6 7 8 9 9 10 10 11 11 11 12 12 12 10 11 11 10 10 11 12 12 11 11 9 10 11 8 9 8 9 8 9 6 3 4 4 3 0 2 8 4 1 1 3 3 2 5 5 5 5 4 4 4 4 4 4
4 3 2 2 4 3 3 4 3 2 0 1 3 6 7 7 8 9 11 11 9 8 7 6 5 5 8 8 8 8 6 8 7 8 9 10 10 11 11 11 10 9 9 9 10 11 10 10 10 11 11 13 10 10 9 7 7 8 8 8 10 10 11 10 10 7 7 5 2 6 4 4 4 5 1 2 4 5 5 4 5 5 5 4 3
Wind_Direction
222 207 228 201 168 168 170 174 175 174 175 179 178 176 174 173 172 174 175 175 173 171 162 161 162 158 155 153 151 149 150 149 149 151 152 153 154 156 160 161 163 169 170 167 161 165 162 143 135 147 157 134 127 168 110 119 113 98 98 134 112 86 59 67 63 41 25 18 5 8 11 14 10 9 7 0 352 347 1 1 339 308 310 292 309
281 204 209 224 178 168 170 174 177 178 178 179 180 180 176 174 174 174 175 175 175 170 165 165 170 164 161 157 154 153 151 151 154 153 155 157 156 158 160 160 165 170 169 167 166 169 160 152 147 159 152 162 187 143 107 100 102 108 116 93 109 77 65 53 54 41 25 18 14 14 14 12 9 5 1 352 348 343 347 346 328 318 289 288 304
243 191 213 217 182 180 171 172 177 182 181 180 183 183 178 177 175 175 176 176 175 173 173 173 173 169 166 164 159 157 156 154 156 157 156 161 158 158 162 163 167 171 170 171 171 172 172 165 159 189 156 176 143 147 122 99 86 117 135 175 61 56 75 54 40 29 22 22 18 18 19 10 4 360 351 344 338 340 342 334 324 310 286 300 305
165 169 200 236 194 186 177 173 178 182 183 183 183 183 181 178 177 178 177 176 177 176 176 176 174 172 172 171 168 163 160 157 158 160 157 164 161 161 165 168 171 170 173 174 173 172 183 175 152 170 159 141 149 184 133 115 120 112 161 105 75 77 57 44 32 22 23 24 19 28 15 5 351 342 342 337 331 336 338 327 315 302 297 309 310
170 168 177 212 206 191 186 178 178 182 184 185 185 183 185 181 180 180 180 178 178 180 178 178 178 175 173 174 174 169 166 162 164 161 160 163 163 166 169 169 172 173 174 175 174 180 179 167 193 151 170 179 158 168 123 127 149 157 149 105 64 66 54 36 26 24 23 22 22 28 4 351 349 334 334 330 327 329 328 319 298 293 299 306 309
177 172 171 192 202 200 193 186 181 181 183 187 187 184 187 186 183 183 183 181 183 183 180 180 179 178 175 176 175 173 171 168 170 166 165 165 165 173 169 171 174 176 178 178 174 188 170 186 188 158 161 193 143 138 149 143 142 157 215 62 73 59 48 35 23 25 20 20 19 17 1 348 338 324 322 328 325 323 323 316 306 312 320 316 311
198 178 171 178 187 202 194 191 187 185 182 186 188 188 189 191 187 184 184 184 187 186 186 183 181 180 177 179 178 176 173 172 178 170 167 172 167 177 172 172 177 177 180 183 178 192 170 189 173 175 157 177 156 150 134 129 160 166 257 89 60 48 41 31 22 25 18 26 7 1 357 342 326 317 319 329 326 323 320 315 318 325 321 310 310
23 294 216 179 169 191 198 196 194 190 187 187 188 189 191 194 192 188 184 186 187 189 188 188 185 180 180 178 180 177 174 174 180 172 173 172 174 174 178 170 173 180 180 180 186 193 172 190 177 165 170 184 188 184 145 167 152 207 161 99 50 44 37 26 25 23 19 22 6 354 346 324 304 308 312 329 327 319 317 320 325 320 311 308 303
125 90 330 324 194 175 203 202 202 198 193 189 189 190 192 193 194 193 188 186 187 189 190 191 186 183 181 179 182 179 174 176 177 180 174 175 182 172 183 171 176 182 180 184 187 192 176 179 173 169 168 176 185 190 201 127 217 212 7 123 10 40 33 19 32 26 24 9 359 346 333 297 306 317 312 327 324 319 320 324 317 308 305 295 288
98 108 125 46 349 236 192 202 209 212 206 195 191 191 191 193 195 195 192 189 188 188 192 193 187 188 187 180 190 180 176 178 179 179 181 177 179 176 188 173 177 184 185 196 182 192 186 185 179 176 181 199 193 183 208 218 260 243 243 293 285 85 18 13 42 30 25 1 352 341 307 325 340 325 311 328 323 321 321 316 309 301 285 283 289
126 117 164 151 139 217 250 209 210 215 220 215 203 196 194 191 192 194 193 193 193 187 189 195 190 188 187 185 186 184 178 182 181 182 186 178 179 177 187 184 179 181 193 198 192 188 191 196 182 185 189 193 202 209 209 217 230 206 287 290 303 85 17 23 51 36 15 4 350 321 321 331 334 313 310 329 327 323 317 311 307 298 299 311 318
155 149 142 135 169 191 198 216 217 222 224 223 218 207 205 201 190 191 193 193 196 192 187 196 194 193 190 191 185 186 185 186 187 185 182 185 183 178 191 189 186 184 194 198 203 183 198 194 195 200 189 189 205 222 220 242 252 254 271 352 87 32 35 24 60 24 4 356 340 321 313 320 318 303 325 329 327 322 317 314 311 304 316 321 322
339 137 142 130 180 201 211 230 223 223 230 230 228 220 215 210 203 194 191 193 197 196 194 194 198 193 193 197 188 189 186 190 194 191 183 191 186 181 194 191 188 191 189 201 200 193 198 204 202 208 199 198 206 223 230 229 240 266 279 228 346 14 22 29 59 23 349 346 320 313 306 309 313 307 330 331 328 325 322 318 310 320 323 328 333
335 287 169 158 151 187 164 268 242 235 239 237 235 232 225 223 216 202 194 192 195 198 197 193 202 197 193 197 197 194 188 194 192 199 188 198 188 190 193 198 193 194 192 195 204 201 199 209 210 217 209 209 208 216 226 241 250 253 279 268 289 28 25 54 27 17 345 330 315 303 312 309 300 311 327 328 329 326 322 313 318 324 332 335 337
163 231 287 261 162 159 176 182 245 238 234 242 243 237 236 232 227 218 204 196 194 198 200 195 199 204 198 199 193 202 194 196 194 201 181 206 200 190 194 201 200 196 199 200 202 205 208 215 216 224 217 212 216 222 230 250 254 261 250 259 291 111 30 66 45 347 337 324 311 309 305 309 304 320 322 331 330 327 319 315 325 331 337 338 339
184 178 178 225 265 161 169 190 197 239 233 240 245 238 229 236 233 226 218 208 200 196 201 199 198 202 205 203 196 203 197 203 198 192 183 211 216 188 201 194 202 202 201 204 207 203 207 214 222 225 226 222 219 229 242 246 255 257 259 267 205 179 323 74 4 339 328 316 303 303 311 307 307 315 326 331 329 323 314 317 326 337 339 339 343
211 182 177 192 173 175 183 173 179 215 247 241 241 245 231 224 232 229 225 217 213 203 200 199 200 202 202 207 202 202 197 205 205 190 186 211 237 197 196 208 200 207 207 207 210 210 212 215 220 226 232 228 226 231 237 244 249 262 264 233 153 200 291 27 10 308 331 313 309 313 307 305 298 310 329 330 329 318 315 322 332 338 340 341 343
210 186 190 185 182 183 182 182 164 194 224 237 241 242 233 225 224 229 228 219 216 216 205 202 193 201 202 198 212 205 203 200 200 188 188 201 224 217 195 210 210 204 214 212 210 215 217 219 223 226 230 233 232 235 239 246 250 262 286 125 158 225 283 33 27 314 334 314 312 306 302 292 297 314 325 329 328 317 319 330 334 335 340 339 343
195 227 207 173 197 194 196 176 166 184 217 221 217 231 224 223 223 226 229 222 218 217 211 202 203 195 195 193 201 210 204 212 199 188 186 195 211 218 208 209 215 206 210 216 216 216 221 218 220 229 234 234 238 240 244 252 256 265 203 155 169 234 24 47 358 334 330 322 305 302 292 294 304 314 323 328 326 320 325 335 337 337 337 338 344
193 184 228 207 179 193 181 193 175 187 211 212 210 205 218 214 213 219 223 223 227 226 212 198 207 204 191 189 195 204 202 207 202 188 188 190 207 211 214 202 230 225 212 215 217 221 224 223 221 224 231 239 241 244 247 251 256 261 162 205 210 52 43 0 338 323 320 306 309 303 296 302 305 312 318 327 329 324 330 337 336 336 335 337 344
213 201 194 231 186 181 199 202 191 195 210 211 206 207 206 210 211 207 213 215 220 227 221 201 196 208 197 188 191 196 199 194 200 181 190 188 195 204 215 213 221 255 257 219 218 221 224 231 227 226 230 235 242 249 251 256 262 269 245 203 220 66 74 338 313 313 316 307 313 283 301 301 303 310 317 323 327 323 333 339 339 336 333 335 343
276 253 199 184 205 208 193 204 211 203 205 214 208 201 209 207 206 205 201 208 211 216 214 208 198 197 201 194 191 189 191 194 197 178 187 190 192 195 204 214 215 241 241 262 239 223 225 228 234 232 234 235 222 224 275 326 345 7 11 26 53 54 55 339 308 314 305 307 293 285 300 299 297 307 312 319 325 324 332 341 341 333 333 332 341
280 266 241 187 191 189 187 198 210 204 210 211 213 201 205 203 204 202 199 196 201 203 202 202 199 195 193 194 191 192 186 190 198 194 183 191 194 193 195 201 210 220 245 246 234 283 267 240 232 234 235 233 193 142 169 249 300 309 5 31 14 3 348 323 305 287 289 291 288 283 299 296 296 306 310 314 324 326 333 339 336 333 335 332 338
243 245 241 193 186 187 199 210 216 212 205 219 223 214 203 204 200 199 197 191 191 194 193 190 192 192 192 189 192 190 185 187 201 197 190 190 197 204 197 196 204 209 218 238 250 236 232 15 1 307 235 101 109 118 137 281 279 312 318 327 322 319 314 298 294 293 285 288 282 291 299 294 296 307 310 313 320 325 331 334 335 337 336 331 335
226 236 247 202 200 201 196 208 208 212 217 220 221 223 211 209 204 200 194 187 187 190 189 187 187 189 187 185 186 189 187 186 189 194 193 190 190 196 210 209 199 206 208 218 235 245 247 270 341 23 61 116 110 121 79 243 253 275 290 298 305 308 301 285 279 281 281 260 259 286 291 289 301 310 311 314 315 322 327 333 335 334 333 334 332
266 255 230 222 207 205 199 200 191 200 208 210 212 221 215 216 209 201 192 190 188 192 188 187 185 186 184 181 178 190 194 187 189 193 193 186 194 196 201 200 203 207 209 212 217 221 239 225 205 210 98 95 131 132 148 183 256 273 281 290 293 295 292 286 274 275 272 259 269 282 286 286 299 308 311 311 310 317 327 331 333 335 339 336 328
232 234 233 222 214 209 206 196 192 195 204 204 203 200 208 219 217 201 196 200 192 192 194 188 188 180 181 179 181 189 191 191 193 196 197 182 203 196 197 196 200 205 203 202 211 214 216 218 212 218 167 133 145 129 140 170 198 264 287 289 281 281 284 283 281 272 271 255 263 277 279 285 298 304 309 308 309 316 324 330 333 336 337 330 330
231 236 236 230 200 207 205 194 203 195 201 195 195 197 204 207 209 203 207 204 193 199 199 196 182 182 182 183 184 185 185 189 196 197 202 184 202 195 195 196 201 204 195 195 200 210 216 213 213 217 195 194 182 196 165 194 205 192 254 271 284 279 277 276 274 269 263 257 257 275 278 281 292 301 307 309 311 317 323 327 332 339 337 335 335
228 234 234 231 219 205 198 199 202 203 202 188 194 200 198 200 199 203 211 201 202 205 200 184 189 188 186 182 180 188 187 188 192 197 187 204 190 194 198 204 196 199 186 205 196 201 208 207 210 213 209 213 210 221 211 230 224 223 220 260 262 272 275 273 271 269 262 256 262 271 274 279 289 297 303 308 313 320 322 324 331 340 337 339 337
223 228 226 227 225 203 197 200 200 201 201 185 198 197 198 197 200 204 210 198 209 202 188 192 193 187 194 191 183 188 192 191 193 187 191 203 192 195 200 200 201 193 189 203 198 194 201 202 207 211 208 216 219 226 211 236 238 241 235 248 253 250 255 261 266 264 264 273 264 265 275 276 284 294 299 306 313 320 321 323 330 337 336 336 336
222 227 226 225 221 197 203 202 201 202 195 191 197 201 197 202 202 203 200 202 202 193 192 195 191 194 197 192 191 189 188 191 190 187 194 196 196 198 204 195 205 196 193 205 188 197 194 199 199 203 208 210 223 213 209 230 238 243 244 244 252 249 252 245 252 258 267 260 262 259 273 284 285 286 291 299 311 318 320 323 328 330 333 338 339
218 224 224 223 219 210 204 202 201 198 192 197 199 202 200 205 207 200 202 203 194 193 194 194 195 196 193 193 194 193 189 189 190 190 192 194 198 201 203 200 207 193 195 197 195 195 196 202 203 205 209 208 220 215 215 222 239 243 247 249 256 252 250 241 239 245 253 263 255 265 271 282 280 282 286 295 306 315 320 321 325 328 332 338 340
221 221 223 219 219 216 207 208 203 197 191 194 196 200 201 204 206 206 206 199 194 193 196 195 196 196 191 194 196 193 193 193 190 191 191 195 200 202 206 209 203 193 191 197 194 191 197 197 210 196 206 200 213 227 213 222 239 249 245 254 247 252 244 237 237 236 247 250 255 261 271 256 265 285 286 290 302 311 316 320 323 328 329 337 339
217 219 223 223 220 217 204 206 204 199 197 198 197 196 199 202 202 207 209 198 195 195 199 197 196 194 193 195 194 195 197 197 190 190 187 194 200 206 207 208 200 193 186 185 194 190 200 199 204 192 209 204 216 218 213 234 236 245 248 250 240 242 235 235 231 229 237 248 251 260 262 259 255 256 273 287 297 303 312 320 323 328 329 336 340
217 214 210 218 216 213 199 204 199 205 197 196 195 199 198 201 199 203 203 199 199 198 198 195 193 194 193 196 196 197 198 197 195 190 192 194 201 208 208 207 190 188 187 190 190 193 197 206 192 205 207 216 217 219 212 229 231 237 242 239 242 237 227 235 235 235 229 241 249 256 252 257 255 260 267 269 287 300 306 317 323 327 330 337 339
214 218 217 216 218 215 200 203 195 199 202 200 198 199 198 199 201 203 203 199 198 201 199 196 194 191 190 196 198 198 197 197 195 194 196 198 204 208 209 192 188 184 193 184 188 199 201 206 201 195 202 218 209 229 206 227 226 240 242 242 242 234 230 234 239 238 235 234 248 247 249 250 250 252 260 264 266 283 295 312 319 325 331 336 338
216 217 217 217 221 217 203 202 198 196 199 202 203 203 201 199 199 200 202 197 200 203 203 198 193 191 191 197 197 198 198 198 197 196 201 202 206 210 201 191 179 186 186 188 197 202 196 203 200 199 202 210 206 222 217 216 228 233 240 246 241 235 235 232 237 237 239 235 242 240 250 247 240 243 255 258 266 269 288 298 311 317 323 333 337
221 218 217 215 219 218 205 204 206 198 196 197 198 199 203 202 202 200 197 198 201 202 199 184 195 193 192 201 195 196 199 199 198 198 206 208 206 207 195 183 176 180 186 189 204 192 200 196 206 193 201 207 209 210 224 218 220 236 241 245 251 241 242 238 239 243 229 247 239 237 232 234 238 243 240 226 246 264 276 294 310 315 317 327 333
223 218 217 218 223 223 205 211 207 200 200 199 200 199 201 207 208 201 197 198 197 199 182 184 192 192 198 200 196 195 197 199 199 199 205 205 205 202 194 181 173 179 182 191 197 192 193 194 205 197 204 216 213 210 218 195 218 232 242 248 251 253 255 247 243 249 238 234 240 240 223 239 227 240 239 240 249 256 270 284 312 306 309 327 332
229 222 219 217 223 226 205 211 210 203 197 194 187 195 194 197 201 205 205 198 195 194 196 197 195 199 202 199 197 198 196 197 198 198 202 202 202 201 194 171 175 176 185 194 198 191 191 192 206 195 197 223 239 212 160 157 199 228 252 274 263 261 264 244 239 235 237 237 240 234 235 235 219 240 237 241 248 239 239 265 272 287 293 315 331
253 222 219 222 217 215 194 214 207 191 185 186 183 182 187 195 214 211 210 199 200 200 201 202 202 203 204 203 200 200 198 195 195 192 200 201 202 192 182 181 179 184 192 203 189 187 193 194 196 185 190 203 227 186 178 146 171 292 276 269 277 235 242 243 245 236 225 232 232 227 227 227 229 232 235 225 235 235 233 241 262 288 291 284 324
295 242 224 223 217 214 207 218 192 187 194 194 192 190 189 191 188 198 194 200 200 201 211 209 211 209 208 206 202 200 199 196 192 193 198 197 196 193 191 189 182 191 198 183 177 184 181 188 174 194 202 197 216 174 181 135 220 215 285 325 318 284 238 227 238 241 226 225 224 224 222 218 226 227 230 186 244 235 238 230 231 274 281 287 315
286 279 261 259 237 219 217 216 195 188 201 199 191 198 202 202 194 195 192 205 214 207 203 206 203 205 204 199 194 191 191 193 191 193 196 197 198 194 197 190 187 183 182 184 180 186 189 189 183 191 184 213 211 179 177 195 178 141 116 39 309 357 329 311 255 249 234 228 219 227 220 219 222 216 215 227 253 256 241 201 216 252 277 284 304
309 312 301 270 258 236 224 215 206 194 196 200 200 207 203 202 204 199 211 193 194 202 202 159 182 199 216 200 201 198 196 198 195 194 198 197 196 198 192 187 187 186 185 185 188 197 188 187 188 196 172 189 204 204 190 195 159 139 189 196 217 98 313 284 301 287 219 221 212 229 210 224 211 212 150 228 235 236 238 222 232 222 261 273 270
303 295 290 270 253 255 241 224 214 202 199 196 199 200 190 173 168 86 90 83 44 132 164 194 189 199 208 204 208 201 202 202 198 197 196 198 197 197 189 186 183 183 185 193 197 201 191 192 190 189 188 199 196 181 206 203 203 209 141 101 39 258 226 248 347 286 15 195 241 230 224 219 211 210 206 230 229 231 233 222 222 229 250 260 267
291 274 272 274 264 267 259 248 236 221 209 201 197 184 182 180 165 171 170 181 205 182 193 200 199 199 207 209 211 205 199 199 195 193 197 196 195 194 189 181 185 187 193 200 200 188 192 194 192 189 197 207 184 165 203 219 213 223 218 159 164 172 199 246 125 270 326 246 333 268 231 222 209 213 218 225 229 230 206 231 212 231 240 246 255
286 300 303 286 276 267 263 251 236 229 223 212 193 180 180 183 187 192 196 195 200 213 209 211 207 212 206 203 203 196 197 194 196 193 195 197 196 193 192 191 193 193 195 196 197 200 198 194 185 192 202 187 162 196 202 178 189 251 235 204 101 139 149 125 233 53 335 323 311 296 258 230 224 219 225 222 228 231 231 217 224 221 236 238 246
282 299 291 303 306 297 280 255 237 229 226 218 194 192 187 189 192 200 201 203 203 213 209 214 211 208 206 207 192 198 197 198 198 198 197 196 195 195 194 195 194 195 188 198 204 201 188 190 191 198 191 185 193 202 195 165 181 212 194 222 207 112 104 73 121 149 166 291 309 325 270 314 264 236 220 223 225 222 230 222 223 220 231 236 238
275 276 297 303 304 306 295 260 247 241 229 197 194 201 201 193 195 197 205 213 208 215 206 207 211 209 206 206 197 198 200 203 202 199 199 196 193 194 193 195 195 195 193 200 204 193 192 187 185 189 194 195 198 207 183 192 194 198 150 217 211 208 210 138 112 90 165 202 278 258 283 322 274 257 232 226 234 231 226 223 215 211 221 237 217
297 287 290 303 302 320 331 342 313 258 257 224 191 199 204 193 196 200 206 212 212 227 201 191 192 179 204 206 204 201 200 202 205 202 198 196 194 195 195 196 199 199 193 200 199 195 196 195 190 191 193 196 201 199 202 192 195 195 182 179 190 207 202 248 222 187 270 187 240 274 232 331 330 290 270 230 231 233 231 232 230 214 217 232 231
320 313 316 327 320 328 330 341 332 339 40 219 227 204 196 194 203 204 205 211 208 206 210 222 192 177 196 205 199 206 199 204 199 205 201 197 199 197 199 202 202 199 196 198 201 198 197 193 192 192 194 197 196 198 207 202 187 194 189 184 195 191 195 203 212 194 204 222 241 267 258 208 215 291 289 297 262 234 227 222 219 215 213 222 222